SCP
0 0 0 0 0 0 0 0 0 0 0 0 0 0 0 0 0 0 -0 0 0 -0 -0 -0 -0 -0 0 0 0 0 0 0 0 0 0 0 0 0 0 0 0 0 0 0
0 0 0 0 0 0 0 0 0 0 0 0 0 0 0 0 0 0 0 0 0 0 0 0 -0 -0 -0 0 0 0 0 0 0 0 0 0 0 0 0 0 0 0 0 0
0 0 0 0 0 0 0 0 0 0 0 0 0 0 0 0 0 0 0 0 0 0 0 0 0 0 -0 -0 -0 0 0 0 0 0 0 0 0 0 0 0 0 0 0 0
0 0 0 0 0 0 0 0 0 0 0 0 0 0 0 0 0 0 0 0 0 0 0 0 0 0 0 0 0 0 0 0 0 0 0 0 0 0 0 0 0 0 0 0
0 0 0 0 0 0 0 0 0 0 0 0 0 0 -0 0 0 0 0 0 0 0 0 0 0 0 0 0 0 0 0 0 0 0 0 0 0 0 0 0 0 0 0 0
0 0 0 0 0 0 0 0 0 0 0 0 0 0 0 0 0 0 0 0 0 0 0 0 0 0 0 0 0 0 0 0 0 0 0 0 0 0 0 0 0 0 0 0
0 0 0 0 0 0 0 0 0 0 0 0 0 0 0 0 0 0 0 0 0 0 0 0 0 0 0 0 0 0 0 0 0 0 0 0 0 0 0 0 0 0 0 0
0 0 0 0 0 0 0 0 0 0 0 0 0 0 0 0 0 0 0 0 0 0 0 0 0 0 0 0 0 0 0 0 0 0 0 0 0 0 0 0 0 0 0 0
0 0 0 0 0 0 0 0 0 0 0 0 0 0 0 0 0 0 0 0 0 0 0 0 0 0 0 0 0 0 0 0 0 0 0 0 0 0 0 0 0 0 0 0
0 0 0 0 0 0 0 0 0 0 0 0 0 0 0 0 0 -0 0 0 0 0 0 0 0 0 0 0 0 0 0 0 0 0 0 0 0 0 0 0 0 0 0 0
0 0 0 0 0 0 0 0 0 0 0 0 0 0 0 0 -0 0 0 0 0 0 0 0 0 0 0 0 0 0 0 0 0 0 0 0 0 0 0 0 0 0 0 0
0 0 0 0 0 0 0 0 0 0 0 0 0 0 0 0 0 0 0 0 0 0 0 0 0 0 0 0 0 0 0 0 0 0 0 0 0 0 0 0 0 0 0 0
0 0 0 0 0 0 0 0 0 0 0 0 0 0 0 0 0 0 0 0 0 0 0 0 0 0 0 0 0 0 0 0 0 0 0 0 0 0 0 0 0 0 0 0
0 0 0 0 0 0 0 0 0 0 0 0 0 0 0 0 0 0 0 0 0 0 0 0 0 0 0 0 0 0 0 0 0 0 0 0 0 0 0 0 0 0 0 0
0 0 0 0 0 0 0 0 0 0 0 0 0 0 0 0 0 0 0 0 0 0 0 0 0 0 0 0 0 0 0 0 0 0 0 0 0 0 0 0 0 0 0 0
0 0 0 0 0 0 0 0 0 0 0 0 0 0 0 0 0 0 0 0 0 0 0 0 0 0 0 0 0 0 0 0 0 0 0 0 0 0 0 0 0 0 0 0
0 0 0 0 0 0 0 0 0 0 0 0 0 0 0 0 0 0 0 0 0 0 0 0 0 0 0 0 0 0 0 0 0 0 0 0 0 0 0 0 0 0 0 0
0 0 0 0 0 0 0 0 0 0 0 0 0 0 0 0 0 0 0 0 0 0 0 0 0 0 0 0 0 0 0 0 0 0 0 0 0 0 0 0 0 0 0 0
0 0 0 0 0 0 0 0 0 0 0 0 0 0 0 0 0 0 0 0 0 0 0 0 0 0 0 0 0 0 0 0 0 0 0 0 0 0 0 0 0 0 0 0
0 0 0 0 0 0 0 0 0 0 0 0 0 0 0 0 0 0 0 0 0 0 0 0 0 0 0 0 0 0 0 0 0 0 0 0 0 0 0 0 0 0 0 0
0 0 0 0 0 0 0 0 0 0 0 0 0 0 0 0 0 0 0 0 0 0 0 0 0 0 0 0 0 0 0 0 0 0 0 0 0 0 0 0 0 0 0 0
0 0 0 0 0 0 0 0 0 0 0 0 0 0 0 0 0 0 0 0 0 0 0 0 0 0 0 0 0 0 0 0 0 0 0 0 0 0 0 0 0 0 0 0
0 0 0 0 0 0 0 0 0 0 0 0 0 0 0 0 0 0 0 0 0 0 0 0 0 0 0 0 0 0 0 0 0 0 0 0 0 0 0 0 0 0 0 0
0 0 0 0 0 0 0 0 0 0 0 0 0 0 0 0 0 0 0 0 0 0 0 0 0 0 0 0 0 0 0 0 0 0 0 0 0 0 0 0 0 0 0 0
0 0 0 0 0 0 0 0 0 0 0 0 0 0 0 0 0 0 0 0 0 0 0 0 0 0 0 0 0 0 0 0 0 0 0 0 0 0 0 0 0 0 0 0
0 0 0 0 0 0 0 0 0 0 0 0 0 0 0 0 0 0 0 0 0 0 0 0 0 0 0 0 0 0 0 0 0 0 0 0 0 0 0 0 0 0 0 0
Wind_Speed_500mb
33 18 45 60 43 14 18 15 23 16 9 10 21 15 22 28 22 33 51 68 71 65 57 55 52 53 56 59 61 61 64 63 65 69 69 66 68 66 64 60 56 53 53 53
14 41 45 32 22 33 28 24 23 6 5 14 12 26 21 24 28 42 48 55 54 69 60 66 65 62 65 62 63 63 64 65 66 71 73 72 67 70 70 69 67 62 60 58
32 44 36 30 34 36 16 37 22 15 7 3 6 15 13 19 41 58 69 70 65 67 65 60 68 73 70 71 68 67 67 67 66 67 72 78 77 76 74 77 76 73 69 65
38 27 38 43 43 37 37 13 17 13 21 11 11 11 11 17 28 24 69 75 80 79 74 66 65 72 80 73 68 67 67 67 67 68 72 78 83 86 82 80 77 76 75 72
32 52 52 53 66 45 11 21 16 10 11 7 7 4 12 6 14 22 45 74 90 81 75 72 62 67 71 76 74 69 68 68 68 71 75 76 79 84 83 84 81 79 79 78
13 47 39 36 22 24 20 19 16 9 2 18 18 17 10 12 15 12 30 61 60 74 78 67 64 62 65 67 81 80 79 74 70 70 75 81 81 82 85 84 82 82 79 79
33 35 16 42 34 14 17 35 7 9 8 11 13 13 23 14 17 19 29 43 48 43 54 66 69 66 62 63 68 74 84 83 78 76 76 78 80 82 84 83 81 82 79 80
47 27 46 42 46 29 50 36 12 16 11 8 8 18 16 26 45 35 24 25 43 42 45 42 43 48 52 53 54 63 69 71 79 80 79 78 79 83 84 84 86 87 86 84
43 36 31 49 26 38 21 29 22 14 6 6 10 12 18 14 18 34 40 23 33 41 42 35 30 30 33 36 38 46 53 55 64 71 74 80 82 83 85 85 88 90 91 90
14 27 42 40 31 32 30 20 13 2 15 10 8 10 13 15 23 26 20 46 49 41 34 33 31 34 34 31 32 34 36 42 46 53 62 68 75 80 84 88 93 94 94 97
14 35 21 27 28 40 15 26 12 11 8 18 9 14 17 33 34 31 31 56 53 46 42 34 30 32 29 21 17 17 18 20 25 33 43 54 64 72 79 87 92 97 99 100
30 30 23 53 2 17 39 40 12 25 15 7 8 12 13 31 30 35 49 59 50 47 50 44 42 43 24 16 11 14 15 13 15 19 25 32 39 50 65 77 85 88 90 90
21 19 31 13 7 5 36 23 38 9 8 13 11 12 8 12 15 42 52 51 51 56 54 48 49 37 21 15 12 13 18 21 25 28 33 37 41 45 49 55 64 75 83 89
27 11 42 46 52 55 60 42 57 25 11 17 33 10 10 11 22 25 49 62 60 61 55 49 48 33 21 18 14 12 17 21 23 27 32 38 42 44 46 46 50 56 64 73
28 7 9 5 27 26 45 50 39 39 36 23 27 16 16 18 17 39 66 67 62 60 58 55 45 29 23 21 19 18 19 24 29 31 34 34 37 41 42 43 43 43 47 53
7 14 22 5 33 40 27 50 32 47 34 17 9 17 18 32 27 33 64 71 70 68 63 49 37 32 22 20 20 25 28 30 36 39 38 38 40 43 43 42 42 43 43 47
45 19 22 15 25 24 15 49 52 47 51 57 48 45 19 16 20 47 68 79 75 70 58 47 37 32 27 28 31 34 36 42 45 44 44 43 41 41 43 44 44 44 45 48
34 30 7 9 28 24 16 49 62 65 64 56 41 32 30 34 64 73 84 92 81 65 54 47 38 35 34 35 39 42 45 47 48 47 44 42 41 41 42 44 44 45 47 49
36 12 10 14 27 1 10 30 63 51 61 65 56 52 22 46 49 54 85 74 68 61 53 41 38 37 36 41 40 39 40 40 39 37 37 39 41 41 44 45 46 47 46 44
17 14 18 8 21 34 26 18 50 8 34 51 75 59 20 38 21 33 64 79 62 52 43 41 39 37 36 33 31 28 27 27 29 30 32 35 38 41 45 46 49 49 47 43
21 14 26 24 9 14 11 25 67 29 38 46 85 77 54 34 64 51 61 61 53 51 52 52 44 37 32 27 21 17 16 16 18 19 21 25 31 31 33 37 38 39 37 34
22 23 11 7 3 32 27 61 58 42 22 13 62 81 97 108 67 58 45 60 59 56 53 51 42 35 29 23 18 15 13 17 18 20 23 26 29 31 32 34 33 33 30 26
11 24 25 32 24 1 81 44 54 48 30 22 42 78 92 79 77 66 66 53 56 58 52 46 44 42 37 29 23 21 17 17 21 22 22 24 26 27 27 28 28 27 23 20
4 7 12 12 12 11 54 27 72 27 41 24 16 33 69 79 75 67 71 70 69 60 50 47 48 46 37 27 25 22 18 16 14 15 15 16 17 18 19 22 22 22 20 19
6 20 14 3 3 9 32 58 79 23 25 30 24 30 46 57 64 71 72 75 71 62 59 55 52 48 41 33 30 27 22 17 11 8 3 3 6 8 9 12 14 12 13 16
9 5 26 12 20 8 29 76 66 57 38 38 48 40 39 45 58 65 72 72 68 66 62 58 54 47 41 37 34 28 23 19 14 9 5 2 2 4 3 2 3 3 5 8
Wind_Direction_500mb
192 193 199 195 199 177 168 162 195 212 197 137 202 215 235 213 219 223 230 233 234 228 238 234 230 227 224 223 225 224 229 234 233 232 231 231 233 237 237 239 239 238 240 241
178 211 203 186 178 197 166 193 197 226 182 171 205 238 242 244 241 235 233 233 232 230 231 233 236 232 229 229 230 230 232 234 237 238 238 237 237 239 242 244 244 244 243 243
193 208 191 179 183 193 184 199 198 201 106 8 108 271 222 250 244 245 248 247 240 234 230 230 233 234 234 232 233 235 236 237 236 240 239 239 240 242 242 241 243 244 246 246
209 199 177 189 195 186 204 159 189 152 151 201 162 270 249 216 236 223 242 242 240 239 237 237 235 234 232 235 239 242 243 242 242 241 241 241 242 243 245 247 249 248 247 249
199 179 179 190 196 190 188 128 147 182 174 127 199 214 265 188 236 230 233 238 240 237 238 235 236 237 237 235 238 243 246 246 245 246 246 247 248 251 251 251 253 253 253 252
190 191 177 194 174 176 124 95 47 39 59 222 196 188 246 197 206 246 233 237 238 235 233 233 237 239 242 240 241 241 243 249 249 250 250 253 255 254 254 254 255 255 254 254
195 182 170 160 149 163 146 156 134 191 206 230 159 183 238 230 240 225 235 232 226 225 231 236 240 242 243 243 241 242 243 246 252 254 254 255 259 259 258 261 263 263 261 258
185 191 172 176 187 180 175 175 159 170 183 195 120 222 237 220 220 218 215 238 215 212 218 227 233 239 241 244 242 241 244 249 250 252 257 260 261 261 262 264 265 265 266 267
184 207 184 179 178 157 179 195 168 97 349 99 204 280 298 209 229 238 240 211 184 181 185 192 203 215 222 233 236 237 240 244 248 252 257 259 262 262 264 267 268 269 271 271
217 181 185 183 151 193 183 157 162 208 145 218 250 274 221 220 216 231 205 206 196 189 192 197 213 218 223 230 236 236 235 240 246 252 255 258 261 264 266 267 267 269 271 273
218 175 168 163 202 173 157 188 180 133 173 188 161 244 203 203 216 202 203 202 197 193 197 194 198 185 171 169 181 201 219 231 245 252 254 254 253 255 257 260 264 268 271 271
204 191 167 193 22 204 179 189 177 188 206 231 163 258 189 207 208 185 198 198 198 204 198 191 184 175 180 186 199 216 221 244 266 271 271 268 267 263 260 259 260 262 265 268
191 163 159 167 344 303 198 180 202 113 92 200 156 251 191 182 173 198 196 203 195 190 188 193 192 193 204 205 216 227 234 262 270 269 273 275 274 272 271 268 265 263 263 264
166 177 186 188 185 182 189 200 198 186 167 187 211 203 274 182 180 188 186 180 180 183 188 187 187 202 218 226 234 254 261 269 278 279 284 286 285 280 279 278 276 272 269 266
177 155 148 183 172 181 203 195 190 200 203 191 223 206 226 204 189 180 187 180 183 187 190 197 199 208 224 227 243 261 268 273 282 288 289 295 288 283 281 278 276 276 275 272
217 153 158 356 170 184 195 202 199 210 213 257 178 218 194 208 201 168 179 184 190 196 201 203 208 225 240 256 264 270 273 283 287 287 287 279 281 280 282 283 280 276 276 275
181 152 160 194 165 135 205 195 200 210 209 211 215 220 156 184 185 190 191 192 198 204 205 211 225 242 259 262 268 273 274 278 282 281 283 274 272 275 277 277 278 279 280 280
180 157 85 130 124 193 225 195 198 204 210 214 231 212 192 198 209 206 201 201 205 209 216 222 231 246 256 261 272 277 277 280 279 278 273 266 266 272 276 278 280 280 280 280
178 135 102 155 195 315 252 199 191 192 221 215 223 229 196 198 209 228 214 206 216 215 217 225 242 237 250 264 267 271 277 279 280 276 276 273 276 282 284 282 280 277 280 282
138 143 143 139 182 208 236 153 202 155 259 215 216 224 155 149 198 225 213 217 208 224 229 226 224 240 247 250 255 260 268 276 277 275 278 283 287 290 292 292 289 287 287 286
145 132 173 177 190 273 222 153 139 161 237 223 212 210 183 199 215 203 201 211 223 228 229 231 229 223 230 228 227 232 246 262 270 277 284 290 291 292 292 288 284 280 281 286
155 152 163 115 191 255 163 151 171 193 143 192 194 196 203 214 212 212 210 214 220 215 206 199 204 208 197 192 207 229 254 274 284 291 294 295 296 300 298 289 278 272 274 275
147 182 172 190 194 340 173 169 190 193 195 172 197 207 205 211 209 199 194 195 198 195 194 198 195 189 189 195 206 224 240 259 279 288 292 295 299 298 293 284 276 273 272 278
334 151 157 108 205 197 182 200 197 199 184 175 184 199 202 206 204 195 192 187 186 189 198 194 188 188 189 198 215 221 239 252 264 278 286 302 305 304 306 298 290 279 276 274
185 150 149 252 112 102 193 194 197 188 183 181 167 171 182 191 191 195 189 188 189 192 191 189 191 191 193 204 211 212 217 214 209 215 254 328 317 328 321 309 293 280 275 280
353 202 193 226 156 136 188 196 199 196 168 174 164 157 165 179 183 186 185 188 191 192 188 190 191 194 197 202 204 201 199 196 200 207 200 245 315 357 327 296 255 196 203 262
Wind_Speed_850mb
33 18 45 60 43 14 18 15 23 16 9 10 21 15 22 28 22 33 51 68 71 65 57 55 52 53 56 59 61 61 64 63 65 69 69 66 68 66 64 60 56 53 53 53
14 41 45 32 22 33 28 24 23 6 5 14 12 26 21 24 28 42 48 55 54 69 60 66 65 62 65 62 63 63 64 65 66 71 73 72 67 70 70 69 67 62 60 58
32 44 36 30 34 36 16 37 22 15 7 3 6 15 13 19 41 58 69 70 65 67 65 60 68 73 70 71 68 67 67 67 66 67 72 78 77 76 74 77 76 73 69 65
38 27 38 43 43 37 37 13 17 13 21 11 11 11 11 17 28 24 69 75 80 79 74 66 65 72 80 73 68 67 67 67 67 68 72 78 83 86 82 80 77 76 75 72
32 52 52 53 66 45 11 21 16 10 11 7 7 4 12 6 14 22 45 74 90 81 75 72 62 67 71 76 74 69 68 68 68 71 75 76 79 84 83 84 81 79 79 78
13 47 39 36 22 24 20 19 16 9 2 18 18 17 10 12 15 12 30 61 60 74 78 67 64 62 65 67 81 80 79 74 70 70 75 81 81 82 85 84 82 82 79 79
33 35 16 42 34 14 17 35 7 9 8 11 13 13 23 14 17 19 29 43 48 43 54 66 69 66 62 63 68 74 84 83 78 76 76 78 80 82 84 83 81 82 79 80
47 27 46 42 46 29 50 36 12 16 11 8 8 18 16 26 45 35 24 25 43 42 45 42 43 48 52 53 54 63 69 71 79 80 79 78 79 83 84 84 86 87 86 84
43 36 31 49 26 38 21 29 22 14 6 6 10 12 18 14 18 34 40 23 33 41 42 35 30 30 33 36 38 46 53 55 64 71 74 80 82 83 85 85 88 90 91 90
14 27 42 40 31 32 30 20 13 2 15 10 8 10 13 15 23 26 20 46 49 41 34 33 31 34 34 31 32 34 36 42 46 53 62 68 75 80 84 88 93 94 94 97
14 35 21 27 28 40 15 26 12 11 8 18 9 14 17 33 34 31 31 56 53 46 42 34 30 32 29 21 17 17 18 20 25 33 43 54 64 72 79 87 92 97 99 100
30 30 23 53 2 17 39 40 12 25 15 7 8 12 13 31 30 35 49 59 50 47 50 44 42 43 24 16 11 14 15 13 15 19 25 32 39 50 65 77 85 88 90 90
21 19 31 13 7 5 36 23 38 9 8 13 11 12 8 12 15 42 52 51 51 56 54 48 49 37 21 15 12 13 18 21 25 28 33 37 41 45 49 55 64 75 83 89
27 11 42 46 52 55 60 42 57 25 11 17 33 10 10 11 22 25 49 62 60 61 55 49 48 33 21 18 14 12 17 21 23 27 32 38 42 44 46 46 50 56 64 73
28 7 9 5 27 26 45 50 39 39 36 23 27 16 16 18 17 39 66 67 62 60 58 55 45 29 23 21 19 18 19 24 29 31 34 34 37 41 42 43 43 43 47 53
7 14 22 5 33 40 27 50 32 47 34 17 9 17 18 32 27 33 64 71 70 68 63 49 37 32 22 20 20 25 28 30 36 39 38 38 40 43 43 42 42 43 43 47
45 19 22 15 25 24 15 49 52 47 51 57 48 45 19 16 20 47 68 79 75 70 58 47 37 32 27 28 31 34 36 42 45 44 44 43 41 41 43 44 44 44 45 48
34 30 7 9 28 24 16 49 62 65 64 56 41 32 30 34 64 73 84 92 81 65 54 47 38 35 34 35 39 42 45 47 48 47 44 42 41 41 42 44 44 45 47 49
36 12 10 14 27 1 10 30 63 51 61 65 56 52 22 46 49 54 85 74 68 61 53 41 38 37 36 41 40 39 40 40 39 37 37 39 41 41 44 45 46 47 46 44
17 14 18 8 21 34 26 18 50 8 34 51 75 59 20 38 21 33 64 79 62 52 43 41 39 37 36 33 31 28 27 27 29 30 32 35 38 41 45 46 49 49 47 43
21 14 26 24 9 14 11 25 67 29 38 46 85 77 54 34 64 51 61 61 53 51 52 52 44 37 32 27 21 17 16 16 18 19 21 25 31 31 33 37 38 39 37 34
22 23 11 7 3 32 27 61 58 42 22 13 62 81 97 108 67 58 45 60 59 56 53 51 42 35 29 23 18 15 13 17 18 20 23 26 29 31 32 34 33 33 30 26
11 24 25 32 24 1 81 44 54 48 30 22 42 78 92 79 77 66 66 53 56 58 52 46 44 42 37 29 23 21 17 17 21 22 22 24 26 27 27 28 28 27 23 20
4 7 12 12 12 11 54 27 72 27 41 24 16 33 69 79 75 67 71 70 69 60 50 47 48 46 37 27 25 22 18 16 14 15 15 16 17 18 19 22 22 22 20 19
6 20 14 3 3 9 32 58 79 23 25 30 24 30 46 57 64 71 72 75 71 62 59 55 52 48 41 33 30 27 22 17 11 8 3 3 6 8 9 12 14 12 13 16
9 5 26 12 20 8 29 76 66 57 38 38 48 40 39 45 58 65 72 72 68 66 62 58 54 47 41 37 34 28 23 19 14 9 5 2 2 4 3 2 3 3 5 8
Wind_Direction_850mb
192 193 199 195 199 177 168 162 195 212 197 137 202 215 235 213 219 223 230 233 234 228 238 234 230 227 224 223 225 224 229 234 233 232 231 231 233 237 237 239 239 238 240 241
178 211 203 186 178 197 166 193 197 226 182 171 205 238 242 244 241 235 233 233 232 230 231 233 236 232 229 229 230 230 232 234 237 238 238 237 237 239 242 244 244 244 243 243
193 208 191 179 183 193 184 199 198 201 106 8 108 271 222 250 244 245 248 247 240 234 230 230 233 234 234 232 233 235 236 237 236 240 239 239 240 242 242 241 243 244 246 246
209 199 177 189 195 186 204 159 189 152 151 201 162 270 249 216 236 223 242 242 240 239 237 237 235 234 232 235 239 242 243 242 242 241 241 241 242 243 245 247 249 248 247 249
199 179 179 190 196 190 188 128 147 182 174 127 199 214 265 188 236 230 233 238 240 237 238 235 236 237 237 235 238 243 246 246 245 246 246 247 248 251 251 251 253 253 253 252
190 191 177 194 174 176 124 95 47 39 59 222 196 188 246 197 206 246 233 237 238 235 233 233 237 239 242 240 241 241 243 249 249 250 250 253 255 254 254 254 255 255 254 254
195 182 170 160 149 163 146 156 134 191 206 230 159 183 238 230 240 225 235 232 226 225 231 236 240 242 243 243 241 242 243 246 252 254 254 255 259 259 258 261 263 263 261 258
185 191 172 176 187 180 175 175 159 170 183 195 120 222 237 220 220 218 215 238 215 212 218 227 233 239 241 244 242 241 244 249 250 252 257 260 261 261 262 264 265 265 266 267
184 207 184 179 178 157 179 195 168 97 349 99 204 280 298 209 229 238 240 211 184 181 185 192 203 215 222 233 236 237 240 244 248 252 257 259 262 262 264 267 268 269 271 271
217 181 185 183 151 193 183 157 162 208 145 218 250 274 221 220 216 231 205 206 196 189 192 197 213 218 223 230 236 236 235 240 246 252 255 258 261 264 266 267 267 269 271 273
218 175 168 163 202 173 157 188 180 133 173 188 161 244 203 203 216 202 203 202 197 193 197 194 198 185 171 169 181 201 219 231 245 252 254 254 253 255 257 260 264 268 271 271
204 191 167 193 22 204 179 189 177 188 206 231 163 258 189 207 208 185 198 198 198 204 198 191 184 175 180 186 199 216 221 244 266 271 271 268 267 263 260 259 260 262 265 268
191 163 159 167 344 303 198 180 202 113 92 200 156 251 191 182 173 198 196 203 195 190 188 193 192 193 204 205 216 227 234 262 270 269 273 275 274 272 271 268 265 263 263 264
166 177 186 188 185 182 189 200 198 186 167 187 211 203 274 182 180 188 186 180 180 183 188 187 187 202 218 226 234 254 261 269 278 279 284 286 285 280 279 278 276 272 269 266
177 155 148 183 172 181 203 195 190 200 203 191 223 206 226 204 189 180 187 180 183 187 190 197 199 208 224 227 243 261 268 273 282 288 289 295 288 283 281 278 276 276 275 272
217 153 158 356 170 184 195 202 199 210 213 257 178 218 194 208 201 168 179 184 190 196 201 203 208 225 240 256 264 270 273 283 287 287 287 279 281 280 282 283 280 276 276 275
181 152 160 194 165 135 205 195 200 210 209 211 215 220 156 184 185 190 191 192 198 204 205 211 225 242 259 262 268 273 274 278 282 281 283 274 272 275 277 277 278 279 280 280
180 157 85 130 124 193 225 195 198 204 210 214 231 212 192 198 209 206 201 201 205 209 216 222 231 246 256 261 272 277 277 280 279 278 273 266 266 272 276 278 280 280 280 280
178 135 102 155 195 315 252 199 191 192 221 215 223 229 196 198 209 228 214 206 216 215 217 225 242 237 250 264 267 271 277 279 280 276 276 273 276 282 284 282 280 277 280 282
138 143 143 139 182 208 236 153 202 155 259 215 216 224 155 149 198 225 213 217 208 224 229 226 224 240 247 250 255 260 268 276 277 275 278 283 287 290 292 292 289 287 287 286
145 132 173 177 190 273 222 153 139 161 237 223 212 210 183 199 215 203 201 211 223 228 229 231 229 223 230 228 227 232 246 262 270 277 284 290 291 292 292 288 284 280 281 286
155 152 163 115 191 255 163 151 171 193 143 192 194 196 203 214 212 212 210 214 220 215 206 199 204 208 197 192 207 229 254 274 284 291 294 295 296 300 298 289 278 272 274 275
147 182 172 190 194 340 173 169 190 193 195 172 197 207 205 211 209 199 194 195 198 195 194 198 195 189 189 195 206 224 240 259 279 288 292 295 299 298 293 284 276 273 272 278
334 151 157 108 205 197 182 200 197 199 184 175 184 199 202 206 204 195 192 187 186 189 198 194 188 188 189 198 215 221 239 252 264 278 286 302 305 304 306 298 290 279 276 274
185 150 149 252 112 102 193 194 197 188 183 181 167 171 182 191 191 195 189 188 189 192 191 189 191 191 193 204 211 212 217 214 209 215 254 328 317 328 321 309 293 280 275 280
353 202 193 226 156 136 188 196 199 196 168 174 164 157 165 179 183 186 185 188 191 192 188 190 191 194 197 202 204 201 199 196 200 207 200 245 315 357 327 296 255 196 203 262